Bozeman, MT

5:45 AM MST on November 20, 2017 (GMT -0700)
Gallatin

Weather History for KBZN - January, 2012

Change the Weather History Date:

Monday, January 23, 2012

  Actual Average Record
Temperature  
Mean Temperature 27 °F 24 °F  
Max Temperature 39 °F 37 °F 54 °F (2005)
Min Temperature 14 °F 12 °F -43 °F (1969)
Degree Days  
Heating Degree Days 38 41  
Month to date heating degree days 879 965  
Since 1 July heating degree days 4040 4200  
Cooling Degree Days 0 0  
Month to date cooling degree days 0 0  
Year to date cooling degree days 0 0  
Moisture  
Dew Point 19 °F    
Average Humidity 70    
Maximum Humidity 92    
Minimum Humidity 48    
Precipitation  
Precipitation T in 0.01 in 0.53 in (1989)
Month to date precipitation 0.10 0.36  
Year to date precipitation 0.10 0.36  
Snow  
Snow T in 0.20 in 7.40 in (1954)
Month to date snowfall 2.5 2.9  
Since 1 July snowfall 8.5 16.3  
Snow Depth 0.00 in    
Sea Level Pressure  
Sea Level Pressure 29.93 in    
Wind  
Wind Speed 4 mph (SE)    
Max Wind Speed 14 mph    
Max Gust Speed 16 mph    
Visibility 10 miles    
Events Snow    
T = Trace of Precipitation, MM = Missing Value Source: NWS Daily Summary

Daily Weather History Graph

Daily Weather History Graph

Search for Another Location

Airport or City:

Trip Planner

Search our weather history database for the weather conditions in past years. The results will help you decide how hot, cold, wet, or windy it might be!

Date:

Astronomy

Jan. 23, 2012 Rise Set
Actual Time 7:56 AM MST 5:17 PM MST
Civil Twilight 7:23 AM MST 5:49 PM MST
Nautical Twilight 6:47 AM MST 6:26 PM MST
Astronomical Twilight 6:11 AM MST 7:01 PM MST
Moon 7:50 AM MST (1/23) 6:13 PM MST (1/23)
Length of Visible Light 10h 26m
Length of Day
9h 20m
New Moon, 0% of the Moon is Illuminated
Jan 23
New Moon
Jan 30
First Quarter
Feb 7
Full
Feb 14
Last Quarter
Feb 21
New

Hourly Weather History & Observations

Time (MST) Temp. Windchill Dew Point Humidity Pressure Visibility Wind Dir Wind Speed Gust Speed Precip Events Conditions
12:56 AM 21.2 °F 12.6 °F 14.0 °F 74% 29.80 in 10.0 mi SE 6.9 mph - N/A   Scattered Clouds
1:56 AM 21.0 °F 12.4 °F 14.0 °F 74% 29.90 in 10.0 mi South 6.9 mph - N/A   Mostly Cloudy
2:56 AM 21.0 °F - 14.0 °F 74% 29.91 in 10.0 mi Calm Calm - N/A   Scattered Clouds
3:56 AM 19.0 °F 13.9 °F 14.0 °F 81% 29.91 in 10.0 mi SSE 3.5 mph - N/A   Overcast
4:56 AM 19.9 °F 12.1 °F 14.0 °F 78% 29.90 in 10.0 mi South 5.8 mph - N/A   Mostly Cloudy
5:56 AM 19.0 °F 13.9 °F 12.9 °F 77% 29.91 in 10.0 mi South 3.5 mph - N/A   Clear
6:56 AM 16.0 °F - 12.0 °F 84% 29.92 in 10.0 mi Calm Calm - N/A   Clear
7:56 AM 17.1 °F 7.6 °F 12.0 °F 81% 29.93 in 10.0 mi SSE 6.9 mph - N/A   Scattered Clouds
8:56 AM 21.0 °F 16.2 °F 15.1 °F 78% 29.91 in 10.0 mi ESE 3.5 mph - N/A   Overcast
9:56 AM 24.1 °F - 18.0 °F 77% 29.93 in 10.0 mi Calm Calm - N/A   Overcast
10:56 AM 30.0 °F - 19.9 °F 66% 29.91 in 10.0 mi Calm Calm - N/A   Overcast
11:56 AM 35.6 °F - 21.2 °F 56% 29.76 in 10.0 mi Calm Calm - N/A   Overcast
12:56 PM 37.9 °F 34.4 °F 19.9 °F 48% 29.85 in 10.0 mi NNW 4.6 mph - N/A   Overcast
1:56 PM 37.9 °F 34.4 °F 21.9 °F 53% 29.85 in 10.0 mi North 4.6 mph - N/A   Overcast
2:56 PM 37.0 °F 32.4 °F 21.0 °F 52% 29.87 in 10.0 mi NW 5.8 mph - N/A   Overcast
3:56 PM 35.1 °F 28.6 °F 25.0 °F 67% 29.92 in 10.0 mi North 8.1 mph - 0.00 in   Overcast
4:46 PM 33.8 °F 28.6 °F 26.6 °F 75% 29.83 in 4.0 mi SSE 5.8 mph - 0.00 in Snow Light Snow
4:56 PM 32.0 °F 24.2 °F 28.0 °F 85% 29.94 in 4.0 mi SE 9.2 mph - 0.00 in Snow Light Snow
5:56 PM 28.9 °F 22.8 °F 27.0 °F 92% 29.99 in 10.0 mi SE 5.8 mph - 0.00 in   Overcast
6:56 PM 27.0 °F 21.6 °F 25.0 °F 92% 30.03 in 10.0 mi SSE 4.6 mph - N/A   Overcast
7:56 PM 26.1 °F 18.4 °F 24.1 °F 92% 30.05 in 10.0 mi ESE 6.9 mph - N/A   Clear
8:56 PM 25.0 °F 20.7 °F 23.0 °F 92% 30.07 in 10.0 mi ENE 3.5 mph - N/A   Clear
9:56 PM 19.4 °F 14.3 °F 17.6 °F 93% 29.95 in 10.0 mi SSE 3.5 mph - N/A   Clear
10:56 PM 19.9 °F 11.1 °F 16.0 °F 85% 30.11 in 10.0 mi SW 6.9 mph - N/A   Clear
11:56 PM 18.0 °F 12.7 °F 12.0 °F 78% 30.13 in 10.0 mi SE 3.5 mph - N/A   Clear